Official Ratings/Rankings of ÖTTV, NÖTTV, STTV, KTTV, BTTV, TTTV, StTTV, WTTV, VTTV, OÖTTV, TTQ, TTSA, TTTA, TTV, and ELTTL.
Ratings Central: The World’s Most Accurate Rating System
HomePlayersEventsClubsProfessional PlayersInfo

Matches

Merotohun, Monday
DateOpponentOpponent’s
Rating
W/LPoint
Change
Score
2017-08-09Commey, Emmanuel2152±107W+7−8 4 −4 9 11 6
2017-08-09Jean, Gregoire2487±78L−1247 8 9 7
2017-08-09Ogini, Olasunkanmi2047±75W+14 −5 6 7 4
2014-05-01Chen, Jian2839±55L−1
2014-05-01Gionis, Panagiotis2792±35L−1
2014-05-01Hachard, Antoine2575±37L−24
2014-05-01Kreanga, Kalinikos2719±35L−5
2014-05-01Martinez, Michel2694±52W+32
2014-05-01Prokopcov, Dmitrij2749±38L−3
2014-01-01Chen, Tianyuan2851±43L−1
2014-01-01Kleprlik, Jakub2635±38L−11
2014-01-01Lorentz, Romain2660±32W+25
2014-01-01Ollivier, Brice2719±38L−3
2014-01-01Robinot, Quentin2669±34L−6
2014-01-01Söderlund, Hampus2580±36L−22
2013-10-26Aruna, Quadri2667±61L−9
2013-10-26Fayele, David2448±194W+5
2013-10-26Odunlade, Sunday2274±256W+2
2013-10-26Olayiwola, Mojeed2526±183W+8
2013-10-01Angles, Enzo2584±46L−21
2013-10-01Brossier, Benjamin2604±41W+20
2013-10-01Chen, Jian2807±32L−1
2013-10-01Freitas, Marcos2818±38L−1
2013-10-01Gao, Ning2918±40L0
2013-10-01Gionis, Panagiotis2811±46L−1
2013-10-01Lashin, El-Sayed2649±43L−9
2013-10-01Lorentz, Romain2628±36W+30
2013-10-01Robinot, Alexandre2549±45L−38
2013-05-05Bahuaud, Jerome2746±149W+22
2013-05-05Filimon, Lucian2612±59L−18
2013-01-02Chen, Jian2824±36L−1
2013-01-02Chen, Tianyuan2854±37W+32
2013-01-02Eloi, Damien2807±40L−1
2013-01-02Freitas, Marcos2827±33L−1
2013-01-02Gionis, Panagiotis2782±31L−1
2013-01-02Jegede, Olanrewaju2506±65L−45
2013-01-02Juzbašić, Ivan2526±43W+8
2013-01-02Kosowski, Jakub2703±35L−5
2013-01-02Le Guen, Victorien2690±35L−6
2013-01-02Legout, Christophe2730±34L−2
2013-01-02Lin, Ju2711±35L−4
2013-01-02Lorentz, Romain2624±34L−14
2013-01-02Lundqvist, Jens2735±37L−2
2013-01-02Martinez, Michel2701±36W+23
2013-01-02Ollivier, Brice2745±37L−2
2013-01-02Rogiers, Benjamin2509±47W+6
2013-01-02Salifou, Abdel-Kader2722±33L−3*
2013-01-02Salifou, Abdel-Kader2722±33L−3*
2013-01-02Yang, Chen2622±41L−19
2012-10-02Calus, Dorin2656±85W+49
2012-10-02Juzbašić, Ivan2561±50W+17
2012-10-02Le Guen, Victorien2634±51L−38
2012-10-02Pattantyus, Adam2695±34L−13
2012-10-02Yang, Chen2592±53W+29
2012-01-02Geminiani, Anthony2558±52W+36
2011-09-04El-Beiali, Mohamed2573±65L−27
2011-09-04M'Boua, Jean Marie2375±96W+8
2011-09-04Migade, Jackson2188±66W+1
2011-09-04Nkunda, Djodjo2061±60W0
2011-09-04Quifica, Bernardo2203±60W+1
2011-09-04Rakotoarisoa, Tahiriniaina2077±85W0
2011-05-08Lotfollah Nasabi, Midya2444±53L−445 8 −6 −8 5 9
2011-05-08Mukala Mutombo, Alain2236±102W+15 −9 3 9 4
2011-02-23Horejsi, Miroslav2637±58L−231 11 −9 3 11
2011-02-23Ueda, Jin2656±46L−157 8 1 11
2010-10-04Anthony, Amalraj2681±49L−8
2010-10-04Han, Justin2637±52W+16
2010-10-04Henzell, William2716±53W+26
2010-10-04Knight, Darius2585±52L−20
2010-10-04Rumgay, Gavin2626±53W+12
2010-10-04Yang, Zi2833±60L−1
2010-09-28Fejer-Konnerth, Zoltan2782±52L−48 11 3
2010-09-28Peter-Paul, Pradeeban2556±69W+143 8 8
2010-09-28Tran, Kiet2459±59L−447 5 −9 −10 7
2010-05-23Bardon, Michal2587±45L−6810 9 5
2010-05-23Chung, Wai Lung2350±39W+1−9 6 12 7
2010-05-23Karakasevic, Aleksandar2776±49L−36 9 −8 7
2010-05-23Matsumoto, Cazuo2613±40W+15−12 5 −4 6 7
2010-05-23Oak, Niraj2246±249W+16 8 10
2010-05-23Parapanov, Konstantin2363±66W+19 8 11
2010-05-23Petö, Zsolt2745±43L−510 10 −11 6
2010-05-23Pistej, Lubomir2742±42L−65 4 −8 8
2010-05-23Rumgay, Gavin2621±48W+207 −9 9 −8 9
2010-05-23Tsuboi, Gustavo2684±41L−145 5 −23 8
2010-05-23Vang, Bora2637±46L−30−7 −8 4 5 14
2010-05-23Yordanov, Teodor2571±55W+9−5 11 7 8
2010-05-23Zeng, Cem2640±47W+299 3 8
2009-12-22Petiot, Jérémy2484±43W+7
2009-12-02Geminiani, Anthony2570±91W+18
2009-11-17Drop, Clément2368±64W+3
2009-10-20Devaux, Jimmy2397±92W+5
2009-10-07Cailleau, Sébastien2492±93W+12
2009-09-23Delobbe, Damien2529±102L−82
2009-09-23Rogiers, Benjamin2604±47W+44
2008-08-08Cheung, Yuk2894±38L−21 −12 3 −7 4
2008-08-08Kan, Yo2917±38L−25 4 −9 7
2008-08-08Smirnov, Alexey2842±46W+6710 −9 8 7
2008-08-08Zeng, Cem2785±48L−12−10 5 8 −8 10 9
2008-02-24Achanta, Sharath Kamal2815±36L−410 12 9
2008-02-24Alto, Gaston2377±65L−1177 6 8
2008-02-24Davis, Kyle2418±45W+47 5 8
2008-02-24Grozdanov, Grozdan2488±57W+13−7 4 6 8
2008-02-24Katkov, Ivan2709±46L−183 8 10
2008-02-24Peter-Paul, Pradeeban2576±56W+35−8 9 7 14
2008-02-24Reed, Daniel2430±44W+6−6 −13 8 11 3
2008-02-24Temperley, Diego2173±136W+16 5 8
2007-06-01Aruputharaj Anthony, Amalraj2319±146L−73
2007-05-21Karimjanov, Alisher2207±248W+14 7 2 3
2007-05-21Katkov, Ivan2654±61W+25−9 5 6 −6 7 8
2007-05-21Lee, Jungwoo2964±51L−104 5 −9 5 −12 9
2007-05-21Semipeadnii, Vladimir2503±149W+65 8 3 9
2006-11-08Gasymov, Elcin2152±101W06 9 7 9
2006-11-08Kinz-Presslmayer, Bernhard2739±45W+50−7 −12 −9 9 10 8 7
2006-11-08Takakiwa, Kenichi2752±51W+95−3 9 6 8 −7 10
2006-11-08Tang, Peng2789±52L−2411 −8 −10 6 −7 5 9
2006-03-18Rasheed, Ali1974±226W+13–0
2006-03-18Saha, Subhajit2545±86L−1093–2
2005-04-30Aaras, Arne2369±94W+49 11 9 −8 6
2005-04-30Genovese, Mario2211±136W+17 7 9 8
2005-04-30Grigorev, Artur2665±55L−114
2005-04-30Sun, Sopheak2017±211W05 4 5 2
2004-08-14Babungu, Bomboko2825±137W+595 8 8 8
2004-08-14Persson, Jörgen2883±46L−62−9 5 5 7 8

OpponentWinsLossesWinning
Percentage
Aaras, Arne10100
Achanta, Sharath Kamal010
Alto, Gaston010
Angles, Enzo010
Anthony, Amalraj010
Aruna, Quadri010
Aruputharaj Anthony, Amalraj010
Babungu, Bomboko10100
Bahuaud, Jerome10100
Bardon, Michal010
Brossier, Benjamin10100
Cailleau, Sébastien10100
Calus, Dorin10100
Chen, Jian030
Chen, Tianyuan1150
Cheung, Yuk010
Chung, Wai Lung10100
Commey, Emmanuel10100
Davis, Kyle10100
Delobbe, Damien010
Devaux, Jimmy10100
Drop, Clément10100
El-Beiali, Mohamed010
Eloi, Damien010
Fayele, David10100
Fejer-Konnerth, Zoltan010
Filimon, Lucian010
Freitas, Marcos020
Gao, Ning010
Gasymov, Elcin10100
Geminiani, Anthony20100
Genovese, Mario10100
Gionis, Panagiotis030
Grigorev, Artur010
Grozdanov, Grozdan10100
Hachard, Antoine010
Han, Justin10100
Henzell, William10100
Horejsi, Miroslav010
Jean, Gregoire010
Jegede, Olanrewaju010
Juzbašić, Ivan20100
Kan, Yo010
Karakasevic, Aleksandar010
Karimjanov, Alisher10100
Katkov, Ivan1150
Kinz-Presslmayer, Bernhard10100
Kleprlik, Jakub010
Knight, Darius010
Kosowski, Jakub010
Kreanga, Kalinikos010
Lashin, El-Sayed010
Le Guen, Victorien020
Lee, Jungwoo010
Legout, Christophe010
Lin, Ju010
Lorentz, Romain2167
Lotfollah Nasabi, Midya010
Lundqvist, Jens010
M'Boua, Jean Marie10100
Martinez, Michel20100
Matsumoto, Cazuo10100
Migade, Jackson10100
Mukala Mutombo, Alain10100
Nkunda, Djodjo10100
Oak, Niraj10100
Odunlade, Sunday10100
Ogini, Olasunkanmi10100
Olayiwola, Mojeed10100
Ollivier, Brice020
Parapanov, Konstantin10100
Pattantyus, Adam010
Persson, Jörgen010
Peter-Paul, Pradeeban20100
Petiot, Jérémy10100
Petö, Zsolt010
Pistej, Lubomir010
Prokopcov, Dmitrij010
Quifica, Bernardo10100
Rakotoarisoa, Tahiriniaina10100
Rasheed, Ali10100
Reed, Daniel10100
Robinot, Alexandre010
Robinot, Quentin010
Rogiers, Benjamin20100
Rumgay, Gavin20100
Saha, Subhajit010
Salifou, Abdel-Kader020
Semipeadnii, Vladimir10100
Smirnov, Alexey10100
Sun, Sopheak10100
Söderlund, Hampus010
Takakiwa, Kenichi10100
Tang, Peng010
Temperley, Diego10100
Tran, Kiet010
Tsuboi, Gustavo010
Ueda, Jin010
Vang, Bora010
Yang, Chen1150
Yang, Zi010
Yordanov, Teodor10100
Zeng, Cem1150